Regional Weather Roundup
Issued by NWS Green Bay, WI

Home | Current Version | Previous Version | Text Only | Print | Product List | Glossary On
Versions: 1 2 3 4 5 6 7 8 9 10 11 12 13 14 15 16 17 18 19 20 21 22 23 24 25 26 27 28 29 30 31 32 33 34 35 36 37 38 39 40 41 42 43 44 45 46 47 48 49 50
000
ASUS43 KGRB 200601
RWRGRB

NORTH-CENTRAL AND NORTHEAST WISCONSIN REGIONAL WEATHER ROUNDUP
NATIONAL WEATHER SERVICE GREEN BAY WI
100 AM CDT FRI OCT 20 2017

WIZ005-009-010>012-018-019-200700-
NORTH CENTRAL WISCONSIN

CITY           SKY/WX    TMP DP  RH WIND       PRES   REMARKS
IRONWOOD       FAIR      57  35  43 S10G20    29.96S
MANITOWISH WTR NOT AVBL
ARBOR VITAE    NOT AVBL
EAGLE RIVER    NOT AVBL
LAND O LAKES   NOT AVBL
RHINELANDER    FAIR      55  35  47 SW12      30.03S
PHILLIPS       FAIR      52  36  53 S6        30.00S
ANTIGO         NOT AVBL
TOMAHAWK       NOT AVBL
MERRILL        FAIR      54  35  48 CALM      30.05S
$$

WIZ013-073-200700-
NORTHEAST WISCONSIN

CITY           SKY/WX    TMP DP  RH WIND       PRES   REMARKS
IRON MOUNTAIN  FAIR      46  32  58 SE5       30.03S
MARINETTE      FAIR      52  42  69 S3        30.07S
$$

WIZ017-030-035>037-045-200700-
CENTRAL WISCONSIN

CITY           SKY/WX    TMP DP  RH WIND       PRES   REMARKS
MEDFORD        NOT AVBL
WAUSAU         FAIR      53  36  52 SE6       30.03F
MOSINEE        NOT AVBL
MARSHFIELD     FAIR      47  35  63 S8        30.03S
WISC RAPIDS    FAIR      51  35  54 S6        30.06S
STEVENS POINT  NOT AVBL
WAUPACA        NOT AVBL
SHAWANO        FAIR      52  37  56 CALM      30.06S
CLINTONVILLE   NOT AVBL
WAUTOMA        FAIR      42  38  85 CALM      30.08F
$$

WIZ038-039-048-051-200700-
FOX VALLEY

CITY           SKY/WX    TMP DP  RH WIND       PRES   REMARKS
NWS GREEN BAY  FAIR      48  39  71 S5        30.08S
APPLETON       NOT AVBL
OSHKOSH        FAIR      51  38  60 S12       30.08S
FOND DU LAC    FAIR      51  34  52 S7        30.09S
$$

WIZ022-050-052-200700-
EAST CENTRAL WISCONSIN

CITY           SKY/WX    TMP DP  RH WIND       PRES   REMARKS
EPHRAIM        FAIR      51  35  53 S6        30.07S
WASHINGTON ISL NOT AVBL
STURGEON BAY   FAIR      53  36  52 S9        30.08F
MANITOWOC      FAIR      48  34  58 S5        30.11S
SHEBOYGAN      FAIR      45  34  65 S5        30.11S
$$

LMZ563-521-522-541>543-200700-
LAKESHORE

STATION/POSITION TIME  TEMP    WIND        PRES    VSBY  WAVE
                       AIR SEA DIR/SP/G                  HT/PER
                 (UTC) (F)     (DEG/KT/KT) (MB)    (MI)  (FT/S)
SHEBOYGAN LKSHOR 0500   58     200/ 16/ 21 1019.3F
KEWAUNEE LKSHORE 0530   54     190/  9/ 12 1018.2F
NORTHPORT PIER   0540   54     180/  5/ 10 1017.9F
N MID LAKE BUOY  0450   59 58  200/ 16/ 17 1018.8R         4/ 5
S GREEN BAY BUOY 0530   58 58  180/ 10/ 12 1018.1R
SISTER BAY LKSHO 0519   57     170/ 10/ 14   N/A
MENOMINEE LKSHOR 0530   57     190/  7/  9 1017.7R
$$




USA.gov is the U.S. government's official web portal to all federal, state and local government web resources and services.